Location: Aultman
(40.9284°N, 81.4173°W)
Time: 09:15:03
(UTC+00:00)

Cosmos 990 Rocket - Pass Details

Date: 24 January 2021
Orbit: 748 x 768 km, 74.0° (Epoch: 02 March)

Event Time Altitude Azimuth Distance (km) Brightness Sun altitude
Rises 23:28:53 0° 190° (S) 3,210 7.6 -10.6°
Reaches altitude 10° 23:31:15 10° 188° (S) 2,286 6.8 -11.1°
Maximum altitude 23:36:24 68° 106° (ESE) 818 3.9 -12.0°
Drops below altitude 10° 23:41:32 10° 25° (NNE) 2,288 6.1 -12.9°
Enters shadow 23:43:08 - 23° (NNE) 2,906 6.6 -13.2°
